Location: *
(0.1100°N, 5.5000°E)
Time: 19:01:23
(UTC+00:00)

Cosmos 1818 - Pass Details

Date: 11 December 2023
Orbit: 771 x 801 km, 65.0° (Epoch: 03 March)

Event Time Altitude Azimuth Distance (km) Brightness Sun altitude
Exits shadow 03:31:47 13° 210° (SSW) 2,180 5.8 -27.3°
Drops below altitude 10° 03:32:30 10° 204° (SSW) 2,353 6.0 -27.1°
Sets 03:35:36 0° 186° (S) 3,278 7.0 -26.4°
